Home   Weather   Alert   Past weeks

Flag for Canada Past Weather in Alert, Nunavut, Canada — Yesterday and Last 2 Weeks

Now
36 °F

Chilly.


Feels Like: 36 °F
Forecast: 35 / 41 °F
Wind: 2 mph from West

Location: Kap Morris Jesup

Current Time: Aug 19, 2017 at 8:21:21 pm

Latest Report: Aug 19, 2017 at 7:00 pm


Visibility: N/A

Pressure: 29.91 "Hg

Humidity: 75%

Dew Point: 29 °F

Location of AlertLocation

Past Weather in Alert — Graph

°F

Alert Temperature Yesterday

Maximum temperature yesterday: 36 °F (at 8:00 pm)
Minimum temperature yesterday: 29 °F (at 12:00 am)
Average temperature yesterday: 33 °F

High & Low Weather Summary for the Past Weeks

 TemperatureHumidityPressure
High46 °F (Aug 7, 1:00 am)100% (Aug 8, 1:00 am)30.15 "Hg (Aug 8, 1:00 am)
Low27 °F (Aug 14, 1:00 pm)58% (Aug 7, 1:00 am)29.44 "Hg (Aug 13, 6:00 pm)
Average33 °F87%29.81 "Hg
* Reported Aug 4 6:00 pm — Aug 19 6:00 pm, Alert. Weather by CustomWeather, © 2017

Note: Actual official high and low records may vary slightly from our data, if they occured in-between our weather recording intervals... More about our weather records

Advertising

Alert Weather History for the Previous 24 Hours

Scroll right to see more
 ConditionsComfort  
Time TempWeatherWind HumidityBarometerVisibility
6:00 pm
Sat, Aug 19
38 °FChilly.6 mph63%29.91 "HgN/A
5:00 pm37 °FChilly.7 mph72%29.92 "HgN/A
4:00 pm39 °FChilly.9 mph64%29.91 "HgN/A
3:00 pm38 °FChilly.9 mph65%29.91 "HgN/A
2:00 pm37 °FChilly.9 mph67%29.92 "HgN/A
1:00 pm38 °FChilly.12 mph68%29.91 "HgN/A
12:00 pm38 °FChilly.14 mph65%29.91 "HgN/A
11:00 am36 °FChilly.15 mph68%29.91 "HgN/A
10:00 am37 °FChilly.14 mph66%29.91 "HgN/A
8:00 am36 °FChilly.12 mph70%29.92 "HgN/A
7:00 am36 °FChilly.13 mph72%29.91 "HgN/A
6:00 am36 °FChilly.14 mph75%29.90 "HgN/A
5:00 am37 °FChilly.15 mph69%29.90 "HgN/A
4:00 am37 °FChilly.14 mph70%29.89 "HgN/A
3:00 am35 °FChilly.10 mph79%29.88 "HgN/A
2:00 am35 °FChilly.10 mph81%29.88 "HgN/A
1:00 am34 °FChilly.9 mph84%29.88 "HgN/A
12:00 am37 °FChilly.14 mph73%29.88 "HgN/A
11:00 pm
Fri, Aug 18
35 °FChilly.13 mph79%29.88 "HgN/A
10:00 pm35 °FChilly.10 mph77%29.88 "HgN/A
9:00 pm36 °FChilly.7 mph77%29.88 "HgN/A
8:00 pm36 °FChilly.10 mph67%29.88 "HgN/A
Weather by CustomWeather, © 2017

See weather overviewHow to use our weather pages